TimeGMT,TemperatureF,Dew PointF,Humidity,Sea Level PressureIn,VisibilityMPH,Wind Direction,Wind SpeedMPH,Gust SpeedMPH,PrecipitationIn,Events,Conditions,WindDirDegrees,DateUTC
12:50 AM,28.4,28.4,100,29.83,6.2,NNE,3.5,-,N/A,,Mostly Cloudy,30,2012-11-30 00:50:00
1:50 AM,30.2,28.4,93,29.83,6.2,WNW,2.3,-,N/A,,Mostly Cloudy,300,2012-11-30 01:50:00
2:50 AM,28,26,90,29.83,7,South,1.2,,,,Partly Cloudy,190,2012-11-30 02:50:00
2:50 AM,28.4,26.6,93,29.83,6.2,South,1.2,-,N/A,,Scattered Clouds,190,2012-11-30 02:50:00
3:50 AM,28.4,28.4,100,29.83,6.2,West,3.5,-,N/A,,Partly Cloudy,280,2012-11-30 03:50:00
4:50 AM,26.6,24.8,93,29.80,5.6,NW,1.2,-,N/A,,Mist,310,2012-11-30 04:50:00
5:50 AM,26,25,96,29.83,11,NW,3.5,,,,,320,2012-11-30 05:50:00
5:50 AM,26.6,24.8,93,29.83,6.2,NW,3.5,-,N/A,,Unknown,320,2012-11-30 05:50:00
6:50 AM,24.8,24.8,100,29.83,6.2,West,4.6,-,N/A,,Unknown,270,2012-11-30 06:50:00
7:50 AM,26.6,24.8,93,29.83,6.2,NW,3.5,-,N/A,Fog,Shallow Fog,310,2012-11-30 07:50:00
8:50 AM,27,25,91,29.86,22,SSW,2.3,,,,Scattered Clouds,200,2012-11-30 08:50:00
8:50 AM,26.6,24.8,93,29.83,6.2,SSW,2.3,-,N/A,,Partly Cloudy,200,2012-11-30 08:50:00
9:50 AM,32.0,28.4,87,29.86,6.2,WNW,2.3,-,N/A,,Scattered Clouds,300,2012-11-30 09:50:00
10:50 AM,35.6,26.6,70,29.86,6.2,West,4.6,-,N/A,,Mostly Cloudy,280,2012-11-30 10:50:00
11:50 AM,36,26,56,29.88,31,NNW,4.6,,,,Scattered Clouds,330,2012-11-30 11:50:00
11:50 AM,35.6,26.6,70,29.86,6.2,NNW,4.6,-,N/A,,Mostly Cloudy,330,2012-11-30 11:50:00
12:50 PM,35.6,28.4,75,29.86,6.2,NNW,4.6,-,N/A,,Mostly Cloudy,330,2012-11-30 12:50:00
1:50 PM,35.6,28.4,75,29.86,6.2,WNW,2.3,-,N/A,,Mostly Cloudy,290,2012-11-30 13:50:00
2:50 PM,35,28,65,29.88,31,West,4.6,,,,Scattered Clouds,280,2012-11-30 14:50:00
2:50 PM,35.6,28.4,75,29.86,6.2,West,4.6,-,N/A,,Mostly Cloudy,280,2012-11-30 14:50:00
3:50 PM,33.8,28.4,81,29.86,6.2,WNW,4.6,-,N/A,,Unknown,290,2012-11-30 15:50:00
4:50 PM,32.0,28.4,87,29.89,6.2,WNW,3.5,-,N/A,,Mostly Cloudy,300,2012-11-30 16:50:00
5:50 PM,32,29,82,29.91,16,WNW,3.5,,,,Scattered Clouds,300,2012-11-30 17:50:00
5:50 PM,32.0,28.4,87,29.89,6.2,WNW,3.5,-,N/A,,Partly Cloudy,300,2012-11-30 17:50:00
6:50 PM,28.4,26.6,93,29.92,6.2,West,1.2,-,N/A,,Scattered Clouds,280,2012-11-30 18:50:00
7:50 PM,28.4,26.6,93,29.92,6.2,WSW,2.3,-,N/A,,Scattered Clouds,240,2012-11-30 19:50:00
8:50 PM,31,28,84,29.93,18,WSW,4.6,,,,Scattered Clouds,250,2012-11-30 20:50:00
8:50 PM,30.2,28.4,93,29.92,6.2,WSW,4.6,-,N/A,,Partly Cloudy,250,2012-11-30 20:50:00
9:50 PM,32.0,28.4,87,29.92,6.2,WSW,4.6,-,N/A,,Scattered Clouds,240,2012-11-30 21:50:00
10:50 PM,30.2,26.6,86,29.92,6.2,West,1.2,-,N/A,,Mostly Cloudy,270,2012-11-30 22:50:00
11:50 PM,32,28,78,29.93,16,SW,3.5,,,,Scattered Clouds,220,2012-11-30 23:50:00
11:50 PM,32.0,28.4,87,29.92,6.2,SW,3.5,-,N/A,,Mostly Cloudy,220,2012-11-30 23:50:00